Location: Lancaster
(34.6980°N, 118.1360°W)
Time: 23:39:24
(UTC-08:00)

STARS - Visible Passes

Search period start: 20 November 2018 00:00
Search period end: 30 November 2018 00:00
Orbit: 624 x 641 km, 98.3° (Epoch: 20 November)

Date Brightness Start Highest point End Pass type
(mag) Time Alt. Az. Time Alt. Az. Time Alt. Az.
20 Nov ? 05:16:31 10° ESE 05:19:37 19° ENE 05:22:43 10° NNE visible
20 Nov ? 18:51:11 17° S 18:51:11 17° S 18:52:13 10° S visible
21 Nov ? 05:36:45 10° SE 05:40:39 32° ENE 05:44:32 10° N visible
21 Nov ? 19:12:38 16° SSW 19:12:38 16° SSW 19:13:28 10° SSW visible
22 Nov ? 05:57:27 10° SSE 06:01:44 56° ENE 06:06:02 10° N visible
22 Nov ? 19:34:06 12° SW 19:34:06 12° SW 19:34:23 10° SW visible
23 Nov ? 18:18:07 12° SE 18:18:07 12° SE 18:18:32 10° SSE visible
24 Nov ? 05:05:54 10° E 05:08:11 14° ENE 05:10:28 10° NE visible
24 Nov ? 18:39:33 15° SSE 18:39:33 15° SSE 18:40:27 10° S visible
25 Nov ? 05:25:42 10° ESE 05:29:10 24° ENE 05:32:39 10° NNE visible
25 Nov ? 19:01:00 16° S 19:01:00 16° S 19:01:55 10° S visible
26 Nov ? 05:46:08 10° SE 05:50:13 40° ENE 05:54:18 10° N visible
26 Nov ? 19:22:26 14° SSW 19:22:26 14° SSW 19:23:01 10° SSW visible
27 Nov ? 06:06:58 10° SSE 06:11:19 72° ENE 06:15:41 10° N visible
28 Nov ? 04:56:28 10° ENE 04:56:45 10° ENE 04:57:02 10° ENE visible
28 Nov ? 18:27:52 13° SSE 18:27:52 13° SSE 18:28:31 10° SSE visible
29 Nov ? 05:14:50 10° ESE 05:17:42 17° ENE 05:20:34 10° NNE visible
29 Nov ? 18:49:18 16° S 18:49:18 16° S 18:50:14 10° S visible
